This is the latest recevied weather packets stored in our database for station/object SV9TNF-51. If no packets are shown the sender has not sent any weather packets the latest 10 day(s).
| Time | Temp. | Humidity | Pressure | Rain* | Wind** | Luminosity | Snow |
|---|---|---|---|---|---|---|---|
| 1788571650 | 25.56° C | 58% | 1011.9 hPa | 0 mm | 1.34 m/s, 133° | - | - |
| 1788571349 | 25.56° C | 59% | 1011.9 hPa | 0 mm | 2.24 m/s, 123° | - | - |
| 1788571049 | 25.56° C | 59% | 1011.9 hPa | 0 mm | 4.92 m/s, 126° | - | - |
| 1788570750 | 25.56° C | 58% | 1011.9 hPa | 0 mm | 0 m/s | - | - |
| 1788570449 | 25.56° C | 58% | 1011.9 hPa | 0 mm | 0.89 m/s, 131° | - | - |
| 1788570149 | 25.56° C | 58% | 1011.9 hPa | 0 mm | 0 m/s | - | - |
| 1788569849 | 25.56° C | 59% | 1011.9 hPa | 0 mm | 0 m/s | - | - |
| 1788569549 | 25.56° C | 59% | 1011.9 hPa | 0 mm | 2.68 m/s, 159° | - | - |
| 1788569249 | 25.56° C | 59% | 1011.9 hPa | 0 mm | 1.79 m/s, 92° | - | - |
| 1788568949 | 25.56° C | 57% | 1011.9 hPa | 0 mm | 0.89 m/s, 130° | - | - |
| 1788568648 | 25.56° C | 57% | 1011.9 hPa | 0 mm | 1.34 m/s, 106° | - | - |
| 1788568348 | 25.56° C | 56% | 1011.9 hPa | 0 mm | 0 m/s | - | - |
| 1788568048 | 25.56° C | 55% | 1011.9 hPa | 0 mm | 0.89 m/s, 137° | - | - |
| 1788567748 | 25.56° C | 55% | 1011.9 hPa | 0 mm | 2.68 m/s, 146° | - | - |
| 1788567448 | 25.56° C | 56% | 1011.9 hPa | 0 mm | 0 m/s | - | - |
| 1788567149 | 25.56° C | 55% | 1011.9 hPa | 0 mm | 1.34 m/s, 123° | - | - |
| 1788566848 | 25.56° C | 55% | 1011.9 hPa | 0 mm | 0.89 m/s, 141° | - | - |
| 1788566548 | 25.56° C | 54% | 1011.9 hPa | 0 mm | 0 m/s | - | - |
| 1788566248 | 25.56° C | 54% | 1012.2 hPa | 0 mm | 1.34 m/s, 87° | - | - |
| 1788565948 | 25.56° C | 53% | 1012.2 hPa | 0 mm | 1.34 m/s, 134° | - | - |
| 1788565674 | 25.56° C | 53% | 1012.2 hPa | 0 mm | 0.89 m/s, 124° | - | - |
| 1788565347 | 25.56° C | 53% | 1012.2 hPa | 0 mm | 0 m/s | - | - |
| 1788565047 | 25.56° C | 52% | 1012.2 hPa | 0 mm | 0 m/s | - | - |
| 1788564747 | 25.56° C | 52% | 1012.5 hPa | 0 mm | 0.89 m/s, 149° | - | - |
| 1788564447 | 25.56° C | 52% | 1012.5 hPa | 0 mm | 1.79 m/s, 154° | - | - |
* Rain latest hour (hover to see other rain measurements)
** Current wind speed in m/s (hover to see current wind gust speed)